Location: Newark
(48.1500°N, 2.9667°W)
Time: 11:19:40
(UTC+00:00)

A-11 Canister half - Pass Details

Date: 26 January 2020
Orbit: 1517 x 1683 km, 47.2° (Epoch: 25 February)

Event Time Altitude Azimuth Distance (km) Brightness Sun altitude
Exits shadow 04:41:09 62° 234° (SW) 1,685 8.8 -31.0°
Maximum altitude 04:42:09 65° 204° (SSW) 1,646 8.9 -30.8°
Drops below altitude 10° 04:51:19 10° 125° (SE) 3,706 11.6 -29.3°
Sets 04:54:24 0° 123° (ESE) 4,704 12.3 -28.8°
